Regional Weather Roundup
Issued by NWS

Home | Current Version | Previous Version | Graphics & Text | Print | Product List | Glossary On
Versions: 1 2 3 4 5 6 7 8 9 10 11 12 13 14 15 16 17 18 19 20 21 22 23 24 25 26 27 28 29 30 31 32 33 34 35 36 37 38 39 40 41 42 43 44 45 46 47 48 49 50
000
ASUS45 KCYS 291610
RWRWY

WYOMING REGIONAL WEATHER ROUNDUP
NATIONAL WEATHER SERVICE CHEYENNE WY
1000 AM MDT SAT AUG 29 2015

NOTE:  "FAIR" INDICATES FEW OR NO CLOUDS BELOW 12,000 FEET
WITH NO SIGNIFICANT WEATHER AND/OR OBSTRUCTIONS TO VISIBILITY.

WYZ001-291700-
YELLOWSTONE NATIONAL PARK

CITY           SKY/WX    TMP DP  RH WIND       PRES   REMARKS
LK YELLOWSTONE   N/A     62  42  47 CALM      30.34F
W YELLOWSTONE  NOT AVBL

$$
WYZ002>013-054>058-071-098>099-291700-
NORTHERN WYOMING

CITY           SKY/WX    TMP DP  RH WIND       PRES   REMARKS
JACKSON        PTSUNNY   61  43  51 CALM      30.27F
CODY           FAIR      79  41  25 SW12      30.11S
GREYBULL       FAIR      71  40  32 VRB5      30.06F
WORLAND        FAIR      71  50  47 W6        30.08S
SHERIDAN       FAIR      75  47  36 NE3       30.04S
BUFFALO        FAIR      83  42  23 E6        30.11F
GILLETTE       FAIR      82  45  27 S13       30.08F
HULETT         FAIR      82  43  24 S10       30.11S
NEWCASTLE      FAIR      77  41  27 SE9       30.15S

$$
WYZ014>020-022>026-101>103-291700-
CENTRAL WYOMING

CITY           SKY/WX    TMP DP  RH WIND       PRES   REMARKS
BIG PINEY      FAIR      63  35  35 CALM      30.34S
PINEDALE       FAIR      64  34  32 CALM      30.35S
DUBOIS         FAIR      66  37  34 CALM      30.31R
LANDER         FAIR      69  41  36 CALM      30.19F
RIVERTON       FAIR      69  45  41 VRB3      30.20S
CASPER         FAIR      81  37  20 S20G26    30.20R
DOUGLAS        FAIR      76  42  29 S3        30.19F

$$
WYZ021-027>030-104>119-291700-
SOUTHERN WYOMING

CITY           SKY/WX    TMP DP  RH WIND       PRES   REMARKS
EVANSTON       FAIR      72  32  23 SW5       30.31S
KEMMERER       FAIR      70  32  24 SE3       30.34S
FORT BRIDGER   SUNNY     70  36  28 NE3       30.34S
ROCK SPRINGS   FAIR      70  37  29 CALM      30.32R
DIXON          FAIR      69  39  33 S3        30.36S
RAWLINS        FAIR      67  40  37 E5        30.35R
SARATOGA       FAIR      70  41  35 SE13      30.37S
LARAMIE        FAIR      69  42  37 S8        30.37S
CHEYENNE       FAIR      74  45  35 S7        30.31R
TORRINGTON     FAIR      72  50  45 SE5       30.17S
PINE BLUFFS    FAIR      75  41  29 S9        30.26S

$$


USA.gov is the U.S. government's official web portal to all federal, state and local government web resources and services.